Weather History for Medicine Lodge, KS

Change the Weather History Date:

Tuesday, May 13, 2014

  Actual Average Record
Temperature  
Mean Temperature 54 °F 66 °F  
Max Temperature 67 °F 78 °F 94 °F (1913)
Min Temperature 40 °F 54 °F 31 °F (1966)
Degree Days  
Heating Degree Days 11 3  
Month to date heating degree days 47 48  
Since 1 July heating degree days 4986 4433  
Cooling Degree Days 0 4  
Month to date cooling degree days 95 32  
Year to date cooling degree days 124 56  
Growing Degree Days 4 (Base 50)    
Moisture  
Dew Point 31 °F    
Average Humidity 52    
Maximum Humidity 82    
Minimum Humidity 22    
Precipitation  
Precipitation 0.00 in 0.10 in 3.61 in (1935)
Month to date precipitation 0.02 1.26  
Year to date precipitation 2.09 7.70  
Snow  
Snow 0.00 in 0.00 in - ()
Month to date snowfall 0.0 0.0  
Since 1 July snowfall 28.5 8.5  
Snow Depth 0.00 in    
Sea Level Pressure  
Sea Level Pressure 30.27 in    
Wind  
Wind Speed 12 mph (North)    
Max Wind Speed 28 mph    
Max Gust Speed 36 mph    
T = Trace of Precipitation, MM = Missing Value Source: NWS Daily Summary

Daily Weather History Graph

Daily Weather History Graph

Search for Another Location

Airport:

Trip Planner

Search our weather history database for the weather conditions in past years. The results will help you decide how hot, cold, wet, or windy it might be!

Date:

Astronomy

May. 13, 2014 Rise Set
Actual Time 6:27 AM CDT 8:34 PM CDT
Civil Twilight 5:58 AM CDT 9:03 PM CDT
Nautical Twilight 5:22 AM CDT 9:39 PM CDT
Astronomical Twilight 4:44 AM CDT 10:17 PM CDT
Moon 7:39 PM CDT (5/13) 5:42 AM CDT (5/13)
Length of Visible Light 15h 05m
Length of Day
14h 07m
Waxing Gibbous, 99% of the Moon is Illuminated
May 13
Waxing Gibbous
May 14
Full
May 21
Last Quarter
May 28
New
Jun 5
First Quarter

Hourly Weather History & Observations

Time (CDT) Temp. Windchill Dew Point Humidity Pressure Visibility Wind Dir Wind Speed Gust Speed Precip Events Conditions
12:56 AM 45.0 °F 40.6 °F 37.0 °F 74% 30.21 in - NNW 8.1 mph - N/A   Unknown
1:56 AM 43.0 °F 38.8 °F 37.0 °F 80% 30.25 in - WNW 6.9 mph - N/A   Unknown
2:56 AM 42.1 °F 36.6 °F 37.0 °F 82% 30.23 in - NW 9.2 mph - N/A   Unknown
3:56 AM 41.0 °F 37.1 °F 36.0 °F 82% 30.22 in - NW 5.8 mph - N/A   Unknown
4:56 AM 41.0 °F 35.8 °F 35.1 °F 79% 30.21 in - NNW 8.1 mph - N/A   Unknown
5:56 AM 41.0 °F 35.8 °F 34.0 °F 76% 30.22 in - NNW 8.1 mph - N/A   Unknown
6:56 AM 41.0 °F 34.7 °F 34.0 °F 76% 30.24 in - NNW 10.4 mph - N/A   Unknown
8:56 AM 51.1 °F - 32.0 °F 48% 30.27 in - North 16.1 mph 27.6 mph N/A   Unknown
9:56 AM 54.0 °F - 30.9 °F 41% 30.29 in - North 23.0 mph 33.4 mph N/A   Unknown
10:56 AM 57.9 °F - 28.0 °F 32% 30.30 in - North 25.3 mph 32.2 mph N/A   Unknown
11:56 AM 60.1 °F - 28.0 °F 30% 30.31 in - North 17.3 mph 27.6 mph N/A   Unknown
12:56 PM 63.0 °F - 28.0 °F 27% 30.30 in - North 19.6 mph 29.9 mph N/A   Unknown
1:56 PM 62.1 °F - 28.9 °F 29% 30.30 in - North 15.0 mph 25.3 mph N/A   Unknown
2:56 PM 64.0 °F - 28.0 °F 26% 30.27 in - NNW 17.3 mph 28.8 mph N/A   Unknown
3:56 PM 66.0 °F - 27.0 °F 23% 30.27 in - NNW 18.4 mph 27.6 mph N/A   Unknown
4:56 PM 66.0 °F - 27.0 °F 23% 30.24 in - North 18.4 mph 29.9 mph N/A   Unknown
5:56 PM 64.0 °F - 27.0 °F 25% 30.24 in - North 17.3 mph 25.3 mph N/A   Unknown
6:56 PM 63.0 °F - 27.0 °F 26% 30.25 in - North 17.3 mph 24.2 mph N/A   Unknown
7:56 PM 60.1 °F - 28.0 °F 30% 30.27 in - North 9.2 mph - N/A   Unknown
8:56 PM 54.0 °F - 28.9 °F 38% 30.29 in - North 5.8 mph - N/A   Unknown
9:56 PM 50.0 °F - 30.9 °F 48% 30.30 in - NE 4.6 mph - N/A   Unknown
10:56 PM 46.0 °F 44.8 °F 32.0 °F 58% 30.31 in - North 3.5 mph - N/A   Unknown
11:56 PM 44.1 °F - 34.0 °F 68% 30.31 in - Calm Calm - N/A   Unknown